| time (UTC) | temp F | wind direction | speed knots | gust knots | rain 1hr in | rain 24hr in | rain mn in | humidity % | barometer mb |
| 20260508165040 | 67 | 271 | 0.0 | 3.5 | 0.00 | 0.02 | 0.01 | 52 | 1017.7 |
| 20260508164553 | 68 | 110 | 0.9 | 3.5 | 0.00 | 0.02 | 0.01 | 57 | 1017.9 |
| 20260508164040 | 68 | 297 | 0.9 | 5.2 | 0.00 | 0.02 | 0.01 | 54 | 1018.0 |
| 20260508163544 | 68 | 186 | 0.0 | 5.2 | 0.00 | 0.02 | 0.01 | 58 | 1018.1 |
| 20260508163048 | 68 | 0 | 0.9 | 3.5 | 0.00 | 0.02 | 0.01 | 57 | 1018.1 |
| 20260508162540 | 67 | 15 | 1.7 | 4.3 | 0.00 | 0.02 | 0.01 | 52 | 1018.1 |
| 20260508162037 | 67 | 304 | 1.7 | 4.3 | 0.00 | 0.02 | 0.01 | 53 | 1018.2 |
| 20260508161557 | 67 | 0 | 0.9 | 2.6 | 0.00 | 0.02 | 0.01 | 58 | 1018.2 |
| 20260508161037 | 67 | 0 | 0.0 | 4.3 | 0.00 | 0.02 | 0.01 | 60 | 1018.4 |
| 20260508160540 | 66 | 0 | 0.0 | 4.3 | 0.00 | 0.02 | 0.01 | 57 | 1018.4 |
| 20260508160046 | 66 | 316 | 0.9 | 4.3 | 0.00 | 0.02 | 0.01 | 54 | 1018.5 |
| 20260508155540 | 65 | 224 | 0.0 | 1.7 | 0.00 | 0.02 | 0.01 | 61 | 1018.7 |
| 20260508155041 | 65 | 0 | 0.0 | 2.6 | 0.00 | 0.02 | 0.01 | 62 | 1018.7 |
| 20260508154606 | 65 | 0 | 0.9 | 2.6 | 0.00 | 0.02 | 0.01 | 60 | 1018.7 |
| 20260508154040 | 65 | 0 | 0.9 | 2.6 | 0.00 | 0.02 | 0.01 | 63 | 1018.7 |
| 20260508153540 | 65 | 0 | 0.0 | 4.3 | 0.00 | 0.02 | 0.01 | 65 | 1018.7 |
| 20260508153047 | 65 | 209 | 0.0 | 4.3 | 0.00 | 0.02 | 0.01 | 60 | 1018.8 |
| 20260508152544 | 64 | 295 | 1.7 | 4.3 | 0.00 | 0.02 | 0.01 | 63 | 1018.7 |
| 20260508152040 | 63 | 0 | 0.9 | 2.6 | 0.00 | 0.02 | 0.01 | 64 | 1018.7 |
| 20260508151549 | 64 | 186 | 0.0 | 2.6 | 0.00 | 0.02 | 0.01 | 61 | 1018.6 |
| 20260508151040 | 63 | 186 | 0.9 | 2.6 | 0.00 | 0.02 | 0.01 | 69 | 1018.7 |
| 20260508150540 | 63 | 0 | 0.0 | 3.5 | 0.00 | 0.02 | 0.01 | 68 | 1018.6 |
| 20260508145540 | 63 | 327 | 0.9 | 3.5 | 0.00 | 0.02 | 0.01 | 68 | 1018.6 |
| 20260508145036 | 62 | 263 | 0.9 | 3.5 | 0.00 | 0.02 | 0.01 | 66 | 1018.7 |
| 20260508144553 | 61 | 200 | 0.0 | 3.5 | 0.00 | 0.02 | 0.01 | 69 | 1018.7 |
| 20260508144043 | 62 | 151 | 0.0 | 1.7 | 0.00 | 0.02 | 0.01 | 72 | 1018.7 |
| 20260508143539 | 62 | 0 | 0.0 | 2.6 | 0.00 | 0.02 | 0.01 | 71 | 1018.7 |
| 20260508143105 | 61 | 0 | 0.0 | 2.6 | 0.00 | 0.02 | 0.01 | 76 | 1018.7 |
| 20260508142540 | 61 | 0 | 0.0 | 1.7 | 0.00 | 0.02 | 0.01 | 79 | 1018.8 |
| 20260508142041 | 60 | 204 | 0.0 | 3.5 | 0.00 | 0.02 | 0.01 | 77 | 1018.8 |
| 20260508141549 | 60 | 0 | 0.0 | 3.5 | 0.00 | 0.02 | 0.01 | 78 | 1018.9 |
| 20260508141040 | 60 | 167 | 0.9 | 3.5 | 0.00 | 0.02 | 0.01 | 84 | 1018.8 |
| 20260508140539 | 59 | 70 | 0.0 | 2.6 | 0.00 | 0.02 | 0.01 | 77 | 1018.9 |
| 20260508140050 | 60 | 0 | 0.0 | 2.6 | 0.00 | 0.02 | 0.01 | 80 | 1018.8 |
| 20260508135838 | 59 | 0 | 0.0 | 3.5 | 0.00 | 0.02 | 0.01 | 82 | 1018.8 |
| 20260508130542 | 56 | 285 | 0.0 | 1.7 | 0.00 | 0.02 | 0.01 | 93 | 1018.6 |
| 20260508130047 | 55 | 0 | 0.0 | 1.7 | 0.00 | 0.02 | 0.01 | 94 | 1018.5 |
| 20260508125538 | 54 | 0 | 0.0 | 1.7 | 0.00 | 0.02 | 0.01 | 94 | 1018.5 |
| 20260508125040 | 54 | 0 | 0.0 | 1.7 | 0.00 | 0.02 | 0.01 | 95 | 1018.4 |
| 20260508124547 | 54 | 0 | 0.0 | 1.7 | 0.00 | 0.02 | 0.01 | 95 | 1018.2 |
| 20260508124037 | 53 | 266 | 0.0 | 1.7 | 0.00 | 0.02 | 0.01 | 95 | 1018.2 |
| 20260508123537 | 53 | 0 | 0.0 | 1.7 | 0.00 | 0.02 | 0.01 | 95 | 1018.1 |
| 20260508123047 | 53 | 43 | 0.0 | 1.7 | 0.00 | 0.02 | 0.01 | 95 | 1018.0 |
| 20260508122537 | 53 | 0 | 0.0 | 1.7 | 0.00 | 0.02 | 0.01 | 95 | 1017.9 |
| 20260508122037 | 53 | 0 | 0.0 | 1.7 | 0.00 | 0.02 | 0.01 | 95 | 1017.8 |
| 20260508121549 | 52 | 298 | 0.0 | 0.9 | 0.00 | 0.02 | 0.01 | 95 | 1017.7 |
| 20260508121037 | 51 | 0 | 0.0 | 0.0 | 0.00 | 0.02 | 0.01 | 95 | 1017.7 |
| 20260508120539 | 51 | 0 | 0.0 | 0.9 | 0.01 | 0.02 | 0.01 | 95 | 1017.7 |
| 20260508120049 | 51 | 0 | 0.0 | 0.9 | 0.01 | 0.02 | 0.01 | 95 | 1017.6 |
| 20260508115541 | 51 | 0 | 0.0 | 0.0 | 0.01 | 0.02 | 0.01 | 95 | 1017.5 |
| 20260508115041 | 50 | 0 | 0.0 | 0.9 | 0.01 | 0.02 | 0.01 | 95 | 1017.5 |
| 20260508114549 | 50 | 0 | 0.0 | 1.7 | 0.01 | 0.02 | 0.01 | 95 | 1017.5 |
| 20260508114040 | 50 | 0 | 0.0 | 1.7 | 0.01 | 0.02 | 0.01 | 95 | 1017.4 |
| 20260508113539 | 50 | 337 | 0.0 | 1.7 | 0.01 | 0.02 | 0.01 | 94 | 1017.2 |
| 20260508113049 | 49 | 0 | 0.0 | 1.7 | 0.01 | 0.02 | 0.01 | 94 | 1017.2 |
| 20260508112540 | 49 | 0 | 0.0 | 0.0 | 0.01 | 0.02 | 0.01 | 94 | 1017.1 |
| 20260508112040 | 49 | 0 | 0.0 | 0.0 | 0.01 | 0.02 | 0.01 | 94 | 1017.1 |
| 20260508111600 | 49 | 0 | 0.0 | 0.0 | 0.01 | 0.02 | 0.01 | 94 | 1016.9 |
| 20260508111037 | 49 | 0 | 0.0 | 0.0 | 0.01 | 0.02 | 0.01 | 94 | 1016.9 |
| 20260508110537 | 49 | 0 | 0.0 | 0.0 | 0.00 | 0.01 | 0.00 | 94 | 1016.8 |
| 20260508110042 | 49 | 0 | 0.0 | 0.0 | 0.00 | 0.01 | 0.00 | 94 | 1016.8 |
| 20260508105541 | 49 | 0 | 0.0 | 0.0 | 0.00 | 0.01 | 0.00 | 94 | 1016.8 |
| 20260508105041 | 49 | 0 | 0.0 | 0.0 | 0.00 | 0.01 | 0.00 | 94 | 1016.7 |
| 20260508104543 | 49 | 0 | 0.0 | 0.0 | 0.00 | 0.01 | 0.00 | 94 | 1016.6 |
| 20260508104040 | 50 | 0 | 0.0 | 0.0 | 0.00 | 0.01 | 0.00 | 94 | 1016.4 |
| 20260508103540 | 50 | 0 | 0.0 | 0.0 | 0.00 | 0.01 | 0.00 | 94 | 1016.4 |
| 20260508103050 | 50 | 0 | 0.0 | 0.0 | 0.00 | 0.01 | 0.00 | 94 | 1016.2 |
| 20260508102536 | 50 | 0 | 0.0 | 0.0 | 0.00 | 0.01 | 0.00 | 94 | 1016.0 |
| 20260508102037 | 50 | 0 | 0.0 | 0.0 | 0.00 | 0.01 | 0.00 | 94 | 1016.1 |
| 20260508101546 | 50 | 0 | 0.0 | 0.0 | 0.00 | 0.01 | 0.00 | 94 | 1015.9 |
| 20260508101039 | 50 | 0 | 0.0 | 0.0 | 0.00 | 0.01 | 0.00 | 94 | 1015.9 |
| 20260508100539 | 50 | 0 | 0.0 | 0.0 | 0.00 | 0.01 | 0.00 | 93 | 1016.0 |
| 20260508100047 | 50 | 0 | 0.0 | 0.0 | 0.00 | 0.01 | 0.00 | 93 | 1015.8 |
| 20260508095537 | 50 | 0 | 0.0 | 0.0 | 0.00 | 0.01 | 0.00 | 93 | 1015.8 |
| 20260508095038 | 50 | 0 | 0.0 | 0.0 | 0.00 | 0.01 | 0.00 | 93 | 1015.7 |
| 20260508094548 | 51 | 0 | 0.0 | 0.0 | 0.00 | 0.01 | 0.00 | 94 | 1015.6 |
| 20260508094037 | 51 | 0 | 0.0 | 0.0 | 0.00 | 0.01 | 0.00 | 94 | 1015.6 |
| 20260508093537 | 51 | 0 | 0.0 | 0.0 | 0.00 | 0.01 | 0.00 | 94 | 1015.5 |
| 20260508093045 | 51 | 0 | 0.0 | 0.0 | 0.00 | 0.01 | 0.00 | 93 | 1015.6 |
| 20260508092537 | 51 | 0 | 0.0 | 0.0 | 0.00 | 0.01 | 0.00 | 93 | 1015.6 |
| 20260508092040 | 51 | 0 | 0.0 | 0.0 | 0.00 | 0.01 | 0.00 | 94 | 1015.6 |
| 20260508091559 | 51 | 0 | 0.0 | 0.0 | 0.00 | 0.01 | 0.00 | 94 | 1015.5 |
| 20260508091037 | 51 | 0 | 0.0 | 0.0 | 0.00 | 0.01 | 0.00 | 94 | 1015.4 |
| 20260508090537 | 52 | 0 | 0.0 | 0.0 | 0.00 | 0.01 | 0.00 | 93 | 1015.5 |
| 20260508090045 | 52 | 0 | 0.0 | 0.0 | 0.00 | 0.01 | 0.00 | 93 | 1015.5 |
| 20260508085538 | 52 | 0 | 0.0 | 0.0 | 0.00 | 0.01 | 0.00 | 93 | 1015.5 |
| 20260508085037 | 52 | 0 | 0.0 | 0.0 | 0.00 | 0.01 | 0.00 | 94 | 1015.4 |
| 20260508084555 | 52 | 0 | 0.0 | 0.0 | 0.00 | 0.01 | 0.00 | 94 | 1015.4 |
| 20260508084038 | 52 | 0 | 0.0 | 0.0 | 0.00 | 0.01 | 0.00 | 94 | 1015.4 |
| 20260508083537 | 52 | 0 | 0.0 | 0.0 | 0.00 | 0.01 | 0.00 | 94 | 1015.3 |
| 20260508083055 | 52 | 0 | 0.0 | 0.0 | 0.00 | 0.01 | 0.00 | 93 | 1015.3 |
| 20260508082537 | 52 | 0 | 0.0 | 0.0 | 0.00 | 0.01 | 0.00 | 93 | 1015.3 |
| 20260508082037 | 52 | 0 | 0.0 | 0.0 | 0.00 | 0.01 | 0.00 | 93 | 1015.1 |
| 20260508081546 | 52 | 0 | 0.0 | 0.9 | 0.00 | 0.01 | 0.00 | 94 | 1015.0 |
| 20260508081038 | 53 | 0 | 0.0 | 0.9 | 0.00 | 0.01 | 0.00 | 93 | 1014.9 |
| 20260508080539 | 53 | 0 | 0.0 | 0.9 | 0.00 | 0.01 | 0.00 | 93 | 1014.9 |
| 20260508080100 | 53 | 303 | 0.0 | 0.9 | 0.00 | 0.01 | 0.00 | 93 | 1014.7 |
| 20260508075537 | 53 | 0 | 0.0 | 0.9 | 0.00 | 0.01 | 0.00 | 93 | 1014.7 |
| 20260508075036 | 53 | 0 | 0.0 | 0.0 | 0.00 | 0.01 | 0.00 | 93 | 1014.8 |
| 20260508074544 | 53 | 0 | 0.0 | 0.0 | 0.00 | 0.01 | 0.00 | 94 | 1014.8 |
| 20260508074037 | 53 | 0 | 0.0 | 0.0 | 0.00 | 0.01 | 0.00 | 93 | 1014.7 |
| 20260508073537 | 53 | 0 | 0.0 | 0.0 | 0.00 | 0.01 | 0.00 | 93 | 1014.7 |
| 20260508073051 | 54 | 0 | 0.0 | 0.0 | 0.00 | 0.01 | 0.00 | 93 | 1014.7 |
| 20260508072537 | 54 | 0 | 0.0 | 0.0 | 0.00 | 0.01 | 0.00 | 93 | 1014.7 |
| 20260508072037 | 54 | 0 | 0.0 | 0.0 | 0.00 | 0.01 | 0.00 | 93 | 1014.6 |
| 20260508071548 | 54 | 0 | 0.0 | 0.0 | 0.00 | 0.01 | 0.00 | 94 | 1014.6 |
| 20260508071037 | 54 | 0 | 0.0 | 0.0 | 0.00 | 0.01 | 0.00 | 93 | 1014.6 |
| 20260508070537 | 54 | 0 | 0.0 | 0.0 | 0.00 | 0.01 | 0.00 | 93 | 1014.7 |
| 20260508070056 | 54 | 0 | 0.0 | 0.0 | 0.00 | 0.01 | 0.00 | 93 | 1014.7 |
| 20260508065536 | 54 | 0 | 0.0 | 0.0 | 0.00 | 0.01 | 0.00 | 94 | 1014.6 |
| 20260508065036 | 55 | 0 | 0.0 | 0.0 | 0.00 | 0.01 | 0.00 | 93 | 1014.6 |
| 20260508064556 | 55 | 0 | 0.0 | 0.0 | 0.00 | 0.01 | 0.00 | 94 | 1014.5 |
| 20260508064037 | 55 | 0 | 0.0 | 0.0 | 0.00 | 0.01 | 0.00 | 93 | 1014.5 |
| 20260508063538 | 55 | 0 | 0.0 | 0.0 | 0.00 | 0.01 | 0.00 | 93 | 1014.6 |
| 20260508063052 | 55 | 0 | 0.0 | 0.0 | 0.00 | 0.01 | 0.00 | 94 | 1014.6 |
| 20260508062537 | 55 | 0 | 0.0 | 0.0 | 0.00 | 0.01 | 0.00 | 94 | 1014.7 |
| 20260508062037 | 55 | 0 | 0.0 | 0.0 | 0.00 | 0.01 | 0.00 | 94 | 1014.7 |
| 20260508061549 | 55 | 0 | 0.0 | 0.0 | 0.00 | 0.01 | 0.00 | 93 | 1014.7 |
| 20260508061040 | 55 | 0 | 0.0 | 0.9 | 0.00 | 0.01 | 0.00 | 93 | 1014.7 |
| 20260508060536 | 56 | 0 | 0.0 | 0.9 | 0.00 | 0.01 | 0.00 | 93 | 1014.7 |
| 20260508060049 | 56 | 0 | 0.0 | 0.9 | 0.00 | 0.01 | 0.00 | 94 | 1014.6 |
| 20260508055537 | 56 | 0 | 0.0 | 0.0 | 0.00 | 0.02 | 0.00 | 94 | 1014.7 |
| 20260508055037 | 56 | 0 | 0.0 | 0.0 | 0.00 | 0.02 | 0.00 | 93 | 1014.9 |
| 20260508054555 | 56 | 0 | 0.0 | 0.0 | 0.00 | 0.02 | 0.00 | 93 | 1014.7 |
| 20260508054039 | 56 | 0 | 0.0 | 0.0 | 0.00 | 0.02 | 0.00 | 93 | 1014.7 |
| 20260508053538 | 56 | 0 | 0.0 | 0.0 | 0.00 | 0.02 | 0.00 | 94 | 1014.8 |
| 20260508053052 | 56 | 0 | 0.0 | 0.0 | 0.00 | 0.02 | 0.00 | 94 | 1014.7 |
| 20260508052538 | 56 | 0 | 0.0 | 0.0 | 0.00 | 0.02 | 0.00 | 94 | 1014.7 |
| 20260508052040 | 56 | 0 | 0.0 | 0.0 | 0.00 | 0.02 | 0.00 | 94 | 1014.6 |
| 20260508051546 | 56 | 0 | 0.0 | 0.0 | 0.00 | 0.02 | 0.00 | 94 | 1014.6 |
| 20260508051038 | 57 | 0 | 0.0 | 0.0 | 0.00 | 0.02 | 0.00 | 94 | 1014.6 |
| 20260508050538 | 57 | 0 | 0.0 | 0.0 | 0.00 | 0.02 | 0.00 | 94 | 1014.6 |
| 20260508050059 | 57 | 0 | 0.0 | 0.0 | 0.00 | 0.02 | 0.00 | 94 | 1014.6 |
| 20260508045537 | 57 | 0 | 0.0 | 0.0 | 0.00 | 0.02 | 0.00 | 94 | 1014.6 |
| 20260508045037 | 57 | 0 | 0.0 | 0.0 | 0.00 | 0.02 | 0.00 | 94 | 1014.5 |
| 20260508044543 | 57 | 0 | 0.0 | 0.0 | 0.00 | 0.02 | 0.00 | 94 | 1014.3 |
| 20260508044037 | 57 | 0 | 0.0 | 0.9 | 0.00 | 0.02 | 0.00 | 94 | 1014.3 |
| 20260508043536 | 57 | 0 | 0.0 | 0.9 | 0.00 | 0.02 | 0.00 | 94 | 1014.3 |
| 20260508043045 | 57 | 0 | 0.0 | 0.0 | 0.00 | 0.02 | 0.00 | 94 | 1014.4 |
| 20260508042537 | 57 | 0 | 0.0 | 0.0 | 0.00 | 0.02 | 0.00 | 94 | 1014.4 |
| 20260508042036 | 57 | 0 | 0.0 | 0.0 | 0.00 | 0.02 | 0.00 | 94 | 1014.4 |
| 20260508041543 | 57 | 0 | 0.0 | 0.0 | 0.00 | 0.02 | 0.00 | 94 | 1014.3 |
| 20260508041037 | 57 | 0 | 0.0 | 1.7 | 0.00 | 0.02 | 0.00 | 94 | 1014.2 |
| 20260508040537 | 57 | 0 | 0.0 | 1.7 | 0.00 | 0.02 | 0.00 | 94 | 1014.2 |
| 20260508040052 | 57 | 0 | 0.0 | 1.7 | 0.00 | 0.02 | 0.00 | 94 | 1014.2 |
| 20260508035537 | 57 | 0 | 0.0 | 1.7 | 0.00 | 0.02 | 0.02 | 94 | 1014.2 |
| 20260508035037 | 57 | 303 | 0.0 | 1.7 | 0.00 | 0.02 | 0.02 | 94 | 1014.0 |
| 20260508034546 | 57 | 0 | 0.0 | 0.0 | 0.00 | 0.02 | 0.02 | 93 | 1014.1 |
| 20260508034038 | 57 | 0 | 0.0 | 0.0 | 0.00 | 0.02 | 0.02 | 93 | 1014.1 |
| 20260508033537 | 58 | 0 | 0.0 | 0.0 | 0.00 | 0.02 | 0.02 | 93 | 1014.0 |
| 20260508033046 | 58 | 0 | 0.0 | 0.0 | 0.00 | 0.02 | 0.02 | 93 | 1014.1 |
| 20260508032537 | 58 | 0 | 0.0 | 0.0 | 0.00 | 0.02 | 0.02 | 94 | 1014.2 |
| 20260508032037 | 58 | 0 | 0.0 | 0.0 | 0.00 | 0.02 | 0.02 | 94 | 1014.2 |
| 20260508031545 | 58 | 0 | 0.0 | 0.0 | 0.00 | 0.02 | 0.02 | 94 | 1014.1 |
| 20260508031039 | 58 | 0 | 0.0 | 0.0 | 0.00 | 0.02 | 0.02 | 94 | 1014.0 |
| 20260508030537 | 58 | 0 | 0.0 | 0.0 | 0.00 | 0.02 | 0.02 | 94 | 1014.0 |
| 20260508030051 | 58 | 0 | 0.0 | 0.0 | 0.00 | 0.02 | 0.02 | 94 | 1014.0 |
| 20260508025537 | 58 | 0 | 0.0 | 0.0 | 0.00 | 0.02 | 0.02 | 94 | 1013.9 |
| 20260508025036 | 58 | 0 | 0.0 | 1.7 | 0.00 | 0.02 | 0.02 | 93 | 1013.9 |
| 20260508024542 | 58 | 0 | 0.0 | 1.7 | 0.00 | 0.02 | 0.02 | 93 | 1013.9 |
| 20260508024037 | 58 | 0 | 0.0 | 0.0 | 0.00 | 0.02 | 0.02 | 93 | 1013.8 |
| 20260508023537 | 58 | 0 | 0.0 | 0.9 | 0.00 | 0.02 | 0.02 | 93 | 1013.7 |
| 20260508023043 | 58 | 0 | 0.0 | 0.9 | 0.00 | 0.02 | 0.02 | 93 | 1013.8 |
| 20260508022537 | 58 | 0 | 0.0 | 0.9 | 0.00 | 0.02 | 0.02 | 93 | 1013.6 |
| 20260508022037 | 58 | 0 | 0.0 | 0.0 | 0.00 | 0.02 | 0.02 | 93 | 1013.5 |
| 20260508021541 | 58 | 0 | 0.0 | 0.0 | 0.00 | 0.02 | 0.02 | 93 | 1013.3 |
| 20260508021037 | 58 | 0 | 0.0 | 0.9 | 0.00 | 0.02 | 0.02 | 93 | 1013.2 |
| 20260508020537 | 58 | 0 | 0.0 | 0.9 | 0.00 | 0.02 | 0.02 | 93 | 1013.1 |
| 20260508020053 | 58 | 0 | 0.0 | 0.9 | 0.00 | 0.02 | 0.02 | 93 | 1012.9 |
| 20260508015537 | 58 | 0 | 0.0 | 0.9 | 0.00 | 0.02 | 0.02 | 93 | 1013.0 |
| 20260508015037 | 58 | 0 | 0.0 | 0.9 | 0.00 | 0.02 | 0.02 | 93 | 1013.1 |
| 20260508014545 | 58 | 0 | 0.0 | 2.6 | 0.00 | 0.02 | 0.02 | 93 | 1013.0 |
| 20260508014040 | 58 | 303 | 0.0 | 2.6 | 0.00 | 0.02 | 0.02 | 93 | 1012.8 |
| 20260508013537 | 58 | 274 | 0.0 | 1.7 | 0.00 | 0.02 | 0.02 | 93 | 1012.7 |
| 20260508013042 | 58 | 0 | 0.0 | 2.6 | 0.00 | 0.02 | 0.02 | 93 | 1012.6 |
| 20260508012537 | 58 | 315 | 0.0 | 2.6 | 0.00 | 0.02 | 0.02 | 92 | 1012.5 |
| 20260508012037 | 58 | 0 | 0.9 | 2.6 | 0.00 | 0.02 | 0.02 | 92 | 1012.5 |
| 20260508011542 | 58 | 0 | 0.0 | 2.6 | 0.00 | 0.02 | 0.02 | 92 | 1012.4 |
| 20260508011039 | 58 | 0 | 0.9 | 2.6 | 0.00 | 0.02 | 0.02 | 92 | 1012.4 |
| 20260508010537 | 58 | 360 | 0.0 | 1.7 | 0.00 | 0.02 | 0.02 | 92 | 1012.2 |
| 20260508010054 | 58 | 0 | 0.0 | 2.6 | 0.00 | 0.02 | 0.02 | 92 | 1012.2 |
| 20260508005537 | 58 | 0 | 0.0 | 2.6 | 0.00 | 0.02 | 0.02 | 92 | 1012.0 |
| 20260508005037 | 58 | 355 | 0.0 | 1.7 | 0.00 | 0.02 | 0.02 | 92 | 1011.9 |
| 20260508004553 | 58 | 0 | 0.0 | 1.7 | 0.00 | 0.02 | 0.02 | 92 | 1011.9 |
| 20260508004039 | 58 | 0 | 0.0 | 4.3 | 0.00 | 0.02 | 0.02 | 92 | 1012.2 |
| 20260508003540 | 58 | 297 | 0.9 | 6.1 | 0.00 | 0.02 | 0.02 | 91 | 1011.9 |
| 20260508003051 | 59 | 0 | 0.9 | 6.1 | 0.00 | 0.02 | 0.02 | 91 | 1011.5 |
| 20260508002537 | 59 | 0 | 0.0 | 4.3 | 0.00 | 0.02 | 0.02 | 91 | 1011.4 |
| 20260508002037 | 59 | 0 | 0.9 | 4.3 | 0.00 | 0.02 | 0.02 | 91 | 1011.8 |
| 20260508001543 | 59 | 190 | 0.0 | 7.0 | 0.00 | 0.02 | 0.02 | 91 | 1011.5 |
| 20260508001037 | 59 | 200 | 0.9 | 7.0 | 0.00 | 0.02 | 0.02 | 90 | 1010.6 |
| 20260508000537 | 59 | 316 | 2.6 | 7.0 | 0.00 | 0.02 | 0.02 | 90 | 1010.8 |
| 20260508000055 | 60 | 275 | 0.0 | 6.1 | 0.00 | 0.02 | 0.02 | 90 | 1010.1 |
| 20260507235537 | 60 | 343 | 1.7 | 6.1 | 0.00 | 0.02 | 0.02 | 89 | 1010.8 |
| 20260507235040 | 61 | 325 | 1.7 | 5.2 | 0.00 | 0.02 | 0.02 | 89 | 1010.6 |
| 20260507234553 | 61 | 318 | 1.7 | 8.7 | 0.00 | 0.02 | 0.02 | 88 | 1010.0 |
| 20260507234041 | 62 | 0 | 1.7 | 8.7 | 0.00 | 0.02 | 0.02 | 87 | 1009.9 |
| 20260507233537 | 63 | 308 | 3.5 | 8.7 | 0.00 | 0.02 | 0.02 | 85 | 1010.0 |
| 20260507233108 | 64 | 318 | 0.9 | 11.3 | 0.00 | 0.02 | 0.02 | 84 | 1009.6 |
| 20260507232537 | 65 | 62 | 2.6 | 11.3 | 0.00 | 0.02 | 0.02 | 81 | 1009.6 |
| 20260507232036 | 67 | 27 | 1.7 | 7.0 | 0.00 | 0.02 | 0.02 | 79 | 1009.7 |
| 20260507231546 | 68 | 274 | 0.9 | 9.6 | 0.00 | 0.02 | 0.02 | 77 | 1008.4 |
| 20260507231036 | 70 | 278 | 4.3 | 9.6 | 0.00 | 0.02 | 0.02 | 74 | 1008.8 |
| 20260507230538 | 72 | 282 | 2.6 | 6.1 | 0.00 | 0.02 | 0.02 | 71 | 1008.4 |
| 20260507230047 | 74 | 338 | 2.6 | 6.1 | 0.00 | 0.02 | 0.02 | 72 | 1008.5 |
| 20260507225538 | 75 | 0 | 0.0 | 3.5 | 0.00 | 0.02 | 0.02 | 78 | 1008.2 |
| 20260507225039 | 75 | 8 | 0.0 | 3.5 | 0.00 | 0.02 | 0.02 | 78 | 1008.0 |
| 20260507224550 | 75 | 360 | 0.9 | 3.5 | 0.00 | 0.02 | 0.02 | 74 | 1007.9 |
| 20260507224037 | 75 | 0 | 0.0 | 2.6 | 0.00 | 0.02 | 0.02 | 77 | 1007.9 |
| 20260507223538 | 75 | 0 | 0.0 | 2.6 | 0.00 | 0.02 | 0.02 | 74 | 1008.0 |
| 20260507223059 | 75 | 0 | 0.9 | 2.6 | 0.00 | 0.02 | 0.02 | 74 | 1008.0 |
| 20260507222536 | 75 | 339 | 0.0 | 2.6 | 0.00 | 0.02 | 0.02 | 74 | 1007.9 |
| 20260507222037 | 75 | 354 | 0.0 | 2.6 | 0.00 | 0.02 | 0.02 | 73 | 1007.8 |
| 20260507221544 | 75 | 73 | 0.9 | 2.6 | 0.00 | 0.02 | 0.02 | 73 | 1007.5 |
| 20260507221037 | 75 | 120 | 0.9 | 6.1 | 0.00 | 0.02 | 0.02 | 74 | 1007.5 |
| 20260507220537 | 75 | 33 | 0.9 | 6.1 | 0.00 | 0.02 | 0.02 | 73 | 1007.5 |
| 20260507220047 | 76 | 308 | 1.7 | 6.1 | 0.00 | 0.02 | 0.02 | 72 | 1007.7 |
| 20260507215541 | 76 | 159 | 0.9 | 5.2 | 0.00 | 0.02 | 0.02 | 73 | 1007.7 |
| 20260507215041 | 76 | 100 | 0.9 | 5.2 | 0.00 | 0.02 | 0.02 | 73 | 1007.6 |
| 20260507214553 | 76 | 0 | 0.9 | 5.2 | 0.00 | 0.02 | 0.02 | 73 | 1007.6 |
| 20260507214037 | 76 | 229 | 0.9 | 5.2 | 0.00 | 0.02 | 0.02 | 73 | 1007.6 |
| 20260507213539 | 76 | 99 | 1.7 | 5.2 | 0.00 | 0.02 | 0.02 | 72 | 1007.7 |
| 20260507213054 | 76 | 141 | 0.9 | 3.5 | 0.00 | 0.02 | 0.02 | 73 | 1007.7 |
| 20260507212541 | 77 | 117 | 0.9 | 3.5 | 0.00 | 0.02 | 0.02 | 72 | 1007.9 |
| 20260507212041 | 77 | 0 | 0.0 | 5.2 | 0.01 | 0.02 | 0.02 | 73 | 1007.7 |
| 20260507211556 | 77 | 53 | 0.0 | 5.2 | 0.01 | 0.02 | 0.02 | 71 | 1007.7 |
| 20260507211037 | 77 | 360 | 1.7 | 5.2 | 0.01 | 0.02 | 0.02 | 71 | 1007.6 |
| 20260507210544 | 78 | 0 | 0.9 | 4.3 | 0.01 | 0.02 | 0.02 | 70 | 1007.5 |
| 20260507210111 | 78 | 153 | 1.7 | 7.0 | 0.01 | 0.02 | 0.02 | 71 | 1007.6 |
| 20260507205542 | 78 | 139 | 0.0 | 7.0 | 0.01 | 0.02 | 0.02 | 72 | 1007.6 |
| 20260507205040 | 78 | 73 | 1.7 | 7.0 | 0.01 | 0.02 | 0.02 | 72 | 1007.7 |
| 20260507204549 | 78 | 119 | 0.9 | 6.1 | 0.01 | 0.02 | 0.02 | 74 | 1007.6 |
| 20260507204040 | 78 | 114 | 0.9 | 6.1 | 0.01 | 0.02 | 0.02 | 71 | 1007.7 |
| 20260507203540 | 77 | 132 | 1.7 | 6.1 | 0.01 | 0.02 | 0.02 | 74 | 1007.6 |
| 20260507203050 | 77 | 146 | 0.9 | 4.3 | 0.01 | 0.02 | 0.02 | 76 | 1007.7 |
| 20260507202544 | 77 | 0 | 1.7 | 4.3 | 0.01 | 0.02 | 0.02 | 75 | 1008.0 |
| 20260507202037 | 77 | 128 | 0.9 | 7.8 | 0.00 | 0.01 | 0.01 | 74 | 1008.1 |
| 20260507201548 | 77 | 88 | 1.7 | 7.8 | 0.00 | 0.01 | 0.01 | 73 | 1008.1 |
| 20260507201037 | 77 | 129 | 1.7 | 4.3 | 0.00 | 0.01 | 0.01 | 75 | 1008.1 |
| 20260507200541 | 77 | 132 | 0.9 | 3.5 | 0.00 | 0.01 | 0.01 | 76 | 1008.1 |
| 20260507200055 | 76 | 0 | 0.9 | 3.5 | 0.00 | 0.01 | 0.01 | 76 | 1008.0 |
| 20260507195545 | 76 | 79 | 0.9 | 6.1 | 0.00 | 0.01 | 0.01 | 79 | 1008.2 |
| 20260507195043 | 76 | 48 | 0.9 | 6.1 | 0.00 | 0.01 | 0.01 | 76 | 1008.3 |
| 20260507194555 | 76 | 0 | 0.9 | 5.2 | 0.00 | 0.01 | 0.01 | 78 | 1008.5 |
| 20260507194040 | 75 | 63 | 0.9 | 5.2 | 0.00 | 0.01 | 0.01 | 77 | 1008.4 |
| 20260507193545 | 75 | 110 | 1.7 | 5.2 | 0.00 | 0.01 | 0.01 | 79 | 1008.6 |
| 20260507193044 | 75 | 123 | 1.7 | 5.2 | 0.00 | 0.01 | 0.01 | 80 | 1008.6 |
| 20260507192541 | 74 | 108 | 0.9 | 3.5 | 0.00 | 0.01 | 0.01 | 83 | 1008.8 |
| 20260507192039 | 74 | 152 | 0.0 | 2.6 | 0.00 | 0.01 | 0.01 | 82 | 1008.8 |
| 20260507191549 | 74 | 358 | 0.9 | 2.6 | 0.00 | 0.01 | 0.01 | 81 | 1008.7 |
| 20260507191037 | 74 | 0 | 0.9 | 4.3 | 0.00 | 0.01 | 0.01 | 80 | 1008.8 |
| 20260507190537 | 74 | 1 | 0.9 | 4.3 | 0.00 | 0.01 | 0.01 | 80 | 1008.9 |
| 20260507190057 | 74 | 5 | 1.7 | 4.3 | 0.00 | 0.01 | 0.01 | 80 | 1008.8 |
| 20260507185537 | 74 | 359 | 0.9 | 4.3 | 0.00 | 0.01 | 0.01 | 83 | 1008.7 |
| 20260507185037 | 74 | 0 | 1.7 | 4.3 | 0.00 | 0.01 | 0.01 | 81 | 1008.7 |
| 20260507184546 | 73 | 355 | 0.0 | 8.7 | 0.00 | 0.01 | 0.01 | 83 | 1008.7 |
| 20260507184039 | 73 | 88 | 1.7 | 8.7 | 0.00 | 0.01 | 0.01 | 84 | 1008.8 |
| 20260507183536 | 73 | 86 | 2.6 | 7.0 | 0.00 | 0.01 | 0.01 | 84 | 1008.9 |
| 20260507183107 | 72 | 0 | 0.9 | 6.1 | 0.00 | 0.01 | 0.01 | 88 | 1008.7 |
| 20260507182537 | 71 | 0 | 0.9 | 3.5 | 0.00 | 0.01 | 0.01 | 90 | 1008.6 |
| 20260507182037 | 71 | 98 | 0.9 | 3.5 | 0.00 | 0.01 | 0.01 | 90 | 1008.6 |
| 20260507181558 | 71 | 135 | 0.9 | 3.5 | 0.00 | 0.01 | 0.01 | 91 | 1008.7 |
| 20260507181038 | 71 | 127 | 0.9 | 2.6 | 0.00 | 0.01 | 0.01 | 92 | 1008.7 |
| 20260507180536 | 71 | 0 | 0.0 | 1.7 | 0.00 | 0.01 | 0.01 | 93 | 1008.7 |
| 20260507180043 | 70 | 49 | 0.0 | 1.7 | 0.00 | 0.01 | 0.01 | 93 | 1008.7 |
| 20260507175537 | 69 | 53 | 0.0 | 1.7 | 0.00 | 0.01 | 0.01 | 95 | 1008.7 |
| 20260507175037 | 69 | 0 | 0.0 | 2.6 | 0.00 | 0.01 | 0.01 | 95 | 1008.6 |
| 20260507174542 | 69 | 0 | 0.0 | 2.6 | 0.00 | 0.01 | 0.01 | 95 | 1008.8 |
| 20260507174042 | 68 | 0 | 0.0 | 2.6 | 0.00 | 0.01 | 0.01 | 95 | 1009.3 |
| 20260507173537 | 68 | 0 | 0.9 | 2.6 | 0.00 | 0.01 | 0.01 | 95 | 1009.3 |
| 20260507173055 | 68 | 39 | 0.0 | 4.3 | 0.00 | 0.01 | 0.01 | 95 | 1009.4 |
| 20260507172537 | 68 | 129 | 0.0 | 4.3 | 0.00 | 0.01 | 0.01 | 95 | 1009.3 |
| 20260507172037 | 68 | 354 | 0.0 | 2.6 | 0.00 | 0.01 | 0.01 | 95 | 1009.0 |
| 20260507171547 | 68 | 0 | 0.0 | 3.5 | 0.00 | 0.01 | 0.01 | 95 | 1008.9 |
| 20260507171037 | 68 | 107 | 0.9 | 3.5 | 0.00 | 0.01 | 0.01 | 95 | 1009.3 |
| 20260507170537 | 68 | 281 | 0.0 | 3.5 | 0.00 | 0.01 | 0.01 | 96 | 1009.4 |
| 20260507170045 | 68 | 0 | 0.0 | 3.5 | 0.00 | 0.01 | 0.01 | 95 | 1009.2 |
| 20260507165536 | 68 | 307 | 0.9 | 6.1 | 0.00 | 0.01 | 0.01 | 95 | 1009.6 |